When you browse on this site, cookies collect data to enhance your experience and personalize the content and advertising you see.
Visit our Privacy Policy to learn more. By continuing to use the site, you agree to this use of cookies and data.
  • Em Portugal
  • Lista de países
  • Para 7 dias
  • Temperatura da água
  • Mapa do tempo
  • Widgets de tempo
  • user-avatar
    Iniciar Sessão

    Previsão horária em Prutz

    Hoje, 22 Setembro, Domingo

    Tempo Temperatura Precipitação Vento Pressão Humidade
    00:00 +8°C° 0 mm 3 m/s 635 mmHg 83%
    01:00 +8°C° 0 mm 3 m/s 634 mmHg 82%
    02:00 +8°C° 0 mm 3 m/s 634 mmHg 79%
    03:00 +8°C° 0 mm 3 m/s 634 mmHg 77%
    04:00 +8°C° 0 mm 3 m/s 634 mmHg 75%
    05:00 +8°C° 0 mm 2 m/s 634 mmHg 75%
    06:00 +9°C° 0 mm 2 m/s 634 mmHg 74%
    07:00 +9°C° 0 mm 2 m/s 634 mmHg 74%
    08:00 +13°C° 0 mm 2 m/s 634 mmHg 69%
    09:00 +15°C° 0 mm 2 m/s 635 mmHg 64%
    10:00 +17°C° 0 mm 2 m/s 635 mmHg 59%
    11:00 +19°C° 0 mm 1 m/s 636 mmHg 57%
    12:00 +20°C° 0 mm 1 m/s 636 mmHg 55%
    13:00 +21°C° 0 mm 1 m/s 636 mmHg 54%
    14:00 +20°C° 0.2 mm 1 m/s 635 mmHg 60%
    15:00 +19°C° 0.2 mm 1 m/s 635 mmHg 66%
    16:00 +18°C° 0.2 mm 1 m/s 634 mmHg 72%
    17:00 +15°C° 0.6 mm 1 m/s 634 mmHg 79%
    18:00 +14°C° 0.6 mm 1 m/s 633 mmHg 85%
    19:00 +13°C° 0.6 mm 1 m/s 633 mmHg 92%
    20:00 +13°C° 0.5 mm 1 m/s 633 mmHg 93%
    21:00 +12°C° 0.5 mm 1 m/s 633 mmHg 93%
    22:00 +12°C° 0.5 mm 1 m/s 633 mmHg 93%
    23:00 +11°C° 0 mm 1 m/s 633 mmHg 93%

    Amanhã, 23 Setembro, Segunda-feira

    Tempo Temperatura Precipitação Vento Pressão Humidade
    00:00 +11°C° 0 mm 1 m/s 632 mmHg 92%
    01:00 +9°C° 0 mm 2 m/s 632 mmHg 92%
    02:00 +10°C° 0 mm 1 m/s 632 mmHg 92%
    03:00 +10°C° 0 mm 1 m/s 632 mmHg 92%
    04:00 +10°C° 0 mm 1 m/s 632 mmHg 92%
    05:00 +10°C° 0.3 mm 1 m/s 632 mmHg 93%
    06:00 +11°C° 0.3 mm 1 m/s 632 mmHg 94%
    07:00 +11°C° 0.3 mm 1 m/s 633 mmHg 94%
    08:00 +9°C° 2 mm 2 m/s 633 mmHg 95%
    09:00 +9°C° 2 mm 2 m/s 633 mmHg 97%
    10:00 +8°C° 2 mm 2 m/s 633 mmHg 98%
    11:00 +7°C° 3.9 mm 2 m/s 633 mmHg 97%
    12:00 +7°C° 3.9 mm 2 m/s 632 mmHg 97%
    13:00 +6°C° 3.9 mm 2 m/s 632 mmHg 97%
    14:00 +6°C° 1.3 mm 2 m/s 632 mmHg 97%
    15:00 +7°C° 1.3 mm 1 m/s 632 mmHg 96%
    16:00 +7°C° 1.3 mm 1 m/s 632 mmHg 96%
    17:00 +7°C° 0.4 mm 1 m/s 632 mmHg 96%
    18:00 +7°C° 0.4 mm 1 m/s 632 mmHg 97%
    19:00 +7°C° 0.4 mm 1 m/s 632 mmHg 97%
    20:00 +6°C° 0 mm 1 m/s 632 mmHg 96%
    21:00 +5°C° 0 mm 1 m/s 632 mmHg 95%
    22:00 +5°C° 0 mm 1 m/s 632 mmHg 95%
    23:00 +4°C° 0 mm 1 m/s 632 mmHg 93%

    Depois de amanhã, 24 Setembro, Terça-feira

    Tempo Temperatura Precipitação Vento Pressão Humidade
    00:00 +4°C° 0 mm 1 m/s 632 mmHg 91%
    01:00 +4°C° 0 mm 1 m/s 632 mmHg 89%
    02:00 +4°C° 0 mm 1 m/s 631 mmHg 87%
    03:00 +4°C° 0 mm 1 m/s 631 mmHg 86%
    04:00 +4°C° 0 mm 1 m/s 631 mmHg 84%
    05:00 +4°C° 0 mm 1 m/s 631 mmHg 82%
    06:00 +5°C° 0 mm 1 m/s 631 mmHg 80%
    07:00 +5°C° 0 mm 1 m/s 631 mmHg 78%
    08:00 +8°C° 0 mm 1 m/s 631 mmHg 75%
    09:00 +10°C° 0 mm 1 m/s 632 mmHg 72%
    10:00 +12°C° 0 mm 1 m/s 632 mmHg 69%
    11:00 +13°C° 0 mm 1 m/s 632 mmHg 63%
    12:00 +14°C° 0 mm 1 m/s 632 mmHg 58%
    13:00 +15°C° 0 mm 1 m/s 632 mmHg 53%
    14:00 +14°C° 0 mm 1 m/s 632 mmHg 56%
    15:00 +14°C° 0 mm 1 m/s 632 mmHg 58%
    16:00 +13°C° 0 mm 1 m/s 631 mmHg 61%
    17:00 +12°C° 0 mm 1 m/s 631 mmHg 68%
    18:00 +10°C° 0 mm 1 m/s 631 mmHg 75%
    19:00 +8°C° 0 mm 1 m/s 630 mmHg 82%
    20:00 +8°C° 0 mm 1 m/s 630 mmHg 81%
    21:00 +9°C° 0 mm 1 m/s 630 mmHg 81%
    22:00 +9°C° 0 mm 1 m/s 631 mmHg 80%
    23:00 +8°C° 0 mm 1 m/s 630 mmHg 82%

    25 Setembro, Quarta-feira

    Tempo Temperatura Precipitação Vento Pressão Humidade
    00:00 +7°C° 0 mm 0 m/s 630 mmHg 84%
    01:00 +6°C° 0 mm 0 m/s 629 mmHg 86%
    02:00 +6°C° 0 mm 0 m/s 629 mmHg 86%
    03:00 +7°C° 0 mm 0 m/s 629 mmHg 87%
    04:00 +7°C° 0 mm 0 m/s 629 mmHg 87%
    05:00 +7°C° 0.2 mm 0 m/s 629 mmHg 88%
    06:00 +7°C° 0.2 mm 0 m/s 629 mmHg 89%
    07:00 +7°C° 0.2 mm 0 m/s 629 mmHg 90%
    08:00 +8°C° 1.1 mm 1 m/s 629 mmHg 91%
    09:00 +8°C° 1.1 mm 1 m/s 630 mmHg 93%
    10:00 +8°C° 1.1 mm 1 m/s 630 mmHg 94%
    11:00 +8°C° 0.6 mm 1 m/s 630 mmHg 94%
    12:00 +8°C° 0.6 mm 1 m/s 630 mmHg 94%
    13:00 +8°C° 0.6 mm 1 m/s 630 mmHg 95%
    14:00 +8°C° 0.1 mm 1 m/s 630 mmHg 94%
    15:00 +8°C° 0.1 mm 1 m/s 630 mmHg 94%
    16:00 +8°C° 0.1 mm 1 m/s 630 mmHg 94%
    17:00 +8°C° 0 mm 1 m/s 630 mmHg 95%
    18:00 +7°C° 0 mm 1 m/s 630 mmHg 95%
    19:00 +7°C° 0 mm 1 m/s 630 mmHg 96%
    20:00 +7°C° 0 mm 1 m/s 631 mmHg 96%
    21:00 +6°C° 0 mm 1 m/s 631 mmHg 95%
    22:00 +6°C° 0 mm 1 m/s 631 mmHg 94%
    23:00 +6°C° 0 mm 1 m/s 631 mmHg 94%

    26 Setembro, Quinta-feira

    Tempo Temperatura Precipitação Vento Pressão Humidade
    00:00 +4°C° 0 mm 0 m/s 631 mmHg 93%
    01:00 +4°C° 0 mm 0 m/s 630 mmHg 93%
    02:00 +4°C° 0 mm 0 m/s 630 mmHg 92%
    03:00 +4°C° 0 mm 0 m/s 631 mmHg 91%
    04:00 +4°C° 0 mm 0 m/s 631 mmHg 91%
    05:00 +4°C° 0 mm 0 m/s 631 mmHg 90%
    06:00 +6°C° 0 mm 1 m/s 631 mmHg 88%
    07:00 +6°C° 0 mm 1 m/s 632 mmHg 87%
    08:00 +8°C° 0 mm 1 m/s 633 mmHg 80%
    09:00 +9°C° 0 mm 0 m/s 633 mmHg 72%
    10:00 +11°C° 0 mm 0 m/s 634 mmHg 65%
    11:00 +12°C° 0 mm 0 m/s 634 mmHg 60%
    12:00 +14°C° 0 mm 0 m/s 635 mmHg 56%
    13:00 +16°C° 0 mm 1 m/s 635 mmHg 52%
    14:00 +16°C° 0 mm 1 m/s 634 mmHg 53%
    15:00 +16°C° 0 mm 1 m/s 634 mmHg 55%
    16:00 +15°C° 0 mm 1 m/s 634 mmHg 57%
    17:00 +13°C° 0 mm 1 m/s 633 mmHg 67%
    18:00 +10°C° 0 mm 0 m/s 633 mmHg 77%
    19:00 +7°C° 0 mm 0 m/s 632 mmHg 87%
    20:00 +7°C° 0 mm 0 m/s 633 mmHg 87%
    21:00 +7°C° 0 mm 0 m/s 633 mmHg 88%
    22:00 +8°C° 0 mm 1 m/s 633 mmHg 88%
    23:00 +9°C° 0 mm 1 m/s 633 mmHg 86%

    27 Setembro, Sexta-feira

    Tempo Temperatura Precipitação Vento Pressão Humidade
    00:00 +9°C° 0 mm 1 m/s 633 mmHg 85%
    01:00 +9°C° 0 mm 1 m/s 633 mmHg 83%
    02:00 +9°C° 0 mm 1 m/s 633 mmHg 84%
    03:00 +9°C° 0 mm 1 m/s 633 mmHg 85%
    04:00 +9°C° 0 mm 1 m/s 632 mmHg 86%
    05:00 +8°C° 0 mm 2 m/s 632 mmHg 86%
    06:00 +8°C° 0 mm 2 m/s 632 mmHg 86%
    07:00 +8°C° 0 mm 2 m/s 632 mmHg 86%
    08:00 +10°C° 0 mm 2 m/s 633 mmHg 81%
    09:00 +12°C° 0 mm 2 m/s 633 mmHg 76%
    10:00 +14°C° 0 mm 2 m/s 634 mmHg 70%
    11:00 +14°C° 0 mm 2 m/s 633 mmHg 69%
    12:00 +15°C° 0 mm 2 m/s 633 mmHg 67%
    13:00 +15°C° 0 mm 2 m/s 633 mmHg 66%
    14:00 +15°C° 0 mm 2 m/s 633 mmHg 68%
    15:00 +15°C° 0 mm 2 m/s 632 mmHg 70%
    16:00 +14°C° 0 mm 2 m/s 632 mmHg 72%
    17:00 +13°C° 0 mm 2 m/s 631 mmHg 78%
    18:00 +10°C° 0 mm 3 m/s 631 mmHg 83%
    19:00 +9°C° 0 mm 3 m/s 630 mmHg 88%
    20:00 +9°C° 0 mm 3 m/s 630 mmHg 89%
    21:00 +9°C° 0 mm 2 m/s 630 mmHg 90%
    22:00 +9°C° 0 mm 2 m/s 631 mmHg 90%
    23:00 +8°C° 0.3 mm 2 m/s 631 mmHg 91%
    Mostrar mais